• In Lithuania
  • List of Countries
  • For 7 days
  • Water Temperature
  • Satellite Maps
  • Weather Map
  • Weather Widgets
  • user-avatar
    Login

    Hourly Weather Casper

    Today, 19 August, Sunday

    Time Temperature Precipitation Wind Pressure Humidity
    00:00 +17°C° 0 mm 4 mps 634 mmHg 63%
    01:00 +15°C° 0 mm 4 mps 634 mmHg 67%
    02:00 +15°C° 0 mm 4 mps 634 mmHg 70%
    03:00 +15°C° 0.4 mm 4 mps 634 mmHg 71%
    04:00 +15°C° 0.4 mm 4 mps 635 mmHg 72%
    05:00 +15°C° 0.4 mm 5 mps 635 mmHg 72%
    06:00 +15°C° 0.6 mm 5 mps 635 mmHg 73%
    07:00 +15°C° 0.6 mm 6 mps 635 mmHg 74%
    08:00 +15°C° 0.6 mm 6 mps 636 mmHg 75%
    09:00 +15°C° 0.2 mm 6 mps 636 mmHg 73%
    10:00 +16°C° 0.2 mm 6 mps 636 mmHg 70%
    11:00 +16°C° 0.2 mm 5 mps 637 mmHg 67%
    12:00 +17°C° 0 mm 5 mps 637 mmHg 63%
    13:00 +19°C° 0 mm 5 mps 637 mmHg 59%
    14:00 +20°C° 0 mm 5 mps 636 mmHg 55%
    15:00 +20°C° 0 mm 4 mps 636 mmHg 53%
    16:00 +20°C° 0 mm 4 mps 636 mmHg 51%
    17:00 +20°C° 0 mm 4 mps 636 mmHg 49%
    18:00 +19°C° 0 mm 3 mps 636 mmHg 50%
    19:00 +19°C° 0 mm 3 mps 636 mmHg 52%
    20:00 +18°C° 0 mm 3 mps 636 mmHg 54%
    21:00 +17°C° 0 mm 2 mps 636 mmHg 55%
    22:00 +16°C° 0 mm 2 mps 636 mmHg 55%
    23:00 +16°C° 0 mm 2 mps 635 mmHg 56%

    Tomorrow, 20 August, Monday

    Time Temperature Precipitation Wind Pressure Humidity
    00:00 +15°C° 0 mm 2 mps 635 mmHg 57%
    01:00 +15°C° 0 mm 2 mps 635 mmHg 58%
    02:00 +14°C° 0 mm 1 mps 634 mmHg 60%
    03:00 +14°C° 0 mm 2 mps 634 mmHg 61%
    04:00 +14°C° 0 mm 2 mps 634 mmHg 62%
    05:00 +14°C° 0 mm 2 mps 634 mmHg 63%
    06:00 +15°C° 0 mm 2 mps 635 mmHg 57%
    07:00 +17°C° 0 mm 2 mps 635 mmHg 52%
    08:00 +18°C° 0 mm 3 mps 636 mmHg 47%
    09:00 +20°C° 0 mm 3 mps 636 mmHg 42%
    10:00 +22°C° 0 mm 3 mps 636 mmHg 37%
    11:00 +25°C° 0 mm 3 mps 636 mmHg 32%
    12:00 +26°C° 0 mm 3 mps 636 mmHg 30%
    13:00 +27°C° 0 mm 3 mps 636 mmHg 27%
    14:00 +28°C° 0 mm 3 mps 635 mmHg 25%
    15:00 +28°C° 0 mm 4 mps 635 mmHg 26%
    16:00 +27°C° 0 mm 5 mps 635 mmHg 26%
    17:00 +27°C° 0 mm 5 mps 635 mmHg 27%
    18:00 +24°C° 0.5 mm 6 mps 635 mmHg 33%
    19:00 +22°C° 0.5 mm 7 mps 635 mmHg 40%
    20:00 +21°C° 0.5 mm 8 mps 635 mmHg 46%
    21:00 +20°C° 0.4 mm 7 mps 635 mmHg 47%
    22:00 +19°C° 0.4 mm 6 mps 635 mmHg 48%
    23:00 +17°C° 0.4 mm 5 mps 635 mmHg 50%

    Day after tomorrow, 21 August, Tuesday

    Time Temperature Precipitation Wind Pressure Humidity
    00:00 +17°C° 0.2 mm 5 mps 635 mmHg 51%
    01:00 +16°C° 0.2 mm 5 mps 635 mmHg 53%
    02:00 +16°C° 0.2 mm 5 mps 635 mmHg 55%
    03:00 +15°C° 0 mm 4 mps 634 mmHg 56%
    04:00 +15°C° 0 mm 4 mps 634 mmHg 56%
    05:00 +14°C° 0 mm 4 mps 634 mmHg 57%
    06:00 +15°C° 0 mm 4 mps 634 mmHg 55%
    07:00 +17°C° 0 mm 4 mps 635 mmHg 53%
    08:00 +18°C° 0 mm 3 mps 635 mmHg 50%
    09:00 +19°C° 0.1 mm 3 mps 636 mmHg 48%
    10:00 +21°C° 0.1 mm 3 mps 636 mmHg 45%
    11:00 +22°C° 0.1 mm 3 mps 636 mmHg 43%
    12:00 +24°C° 0.5 mm 3 mps 636 mmHg 40%
    13:00 +25°C° 0.5 mm 3 mps 636 mmHg 38%
    14:00 +26°C° 0.5 mm 3 mps 636 mmHg 36%
    15:00 +27°C° 0 mm 3 mps 636 mmHg 35%
    16:00 +27°C° 0 mm 3 mps 636 mmHg 35%
    17:00 +27°C° 0 mm 3 mps 636 mmHg 34%
    18:00 +25°C° 0.2 mm 3 mps 636 mmHg 40%
    19:00 +23°C° 0.2 mm 4 mps 636 mmHg 46%
    20:00 +22°C° 0.2 mm 4 mps 636 mmHg 53%
    21:00 +21°C° 0 mm 3 mps 636 mmHg 54%
    22:00 +21°C° 0 mm 3 mps 636 mmHg 56%
    23:00 +21°C° 0 mm 2 mps 636 mmHg 57%

    22 August, Wednesday

    Time Temperature Precipitation Wind Pressure Humidity
    00:00 +21°C° 0 mm 2 mps 636 mmHg 58%
    01:00 +20°C° 0 mm 2 mps 635 mmHg 59%
    02:00 +21°C° 0 mm 1 mps 635 mmHg 61%
    03:00 +20°C° 0 mm 2 mps 635 mmHg 62%
    04:00 +19°C° 0 mm 2 mps 635 mmHg 63%
    05:00 +19°C° 0 mm 2 mps 635 mmHg 64%
    06:00 +20°C° 0 mm 2 mps 635 mmHg 60%
    07:00 +21°C° 0 mm 3 mps 635 mmHg 56%
    08:00 +22°C° 0 mm 3 mps 636 mmHg 52%
    09:00 +25°C° 0 mm 4 mps 636 mmHg 47%
    10:00 +26°C° 0 mm 4 mps 636 mmHg 42%
    11:00 +27°C° 0 mm 4 mps 636 mmHg 36%
    12:00 +29°C° 0 mm 4 mps 636 mmHg 33%
    13:00 +30°C° 0 mm 5 mps 635 mmHg 29%
    14:00 +32°C° 0 mm 5 mps 635 mmHg 25%
    15:00 +32°C° 0 mm 5 mps 635 mmHg 24%
    16:00 +32°C° 0 mm 5 mps 634 mmHg 23%
    17:00 +32°C° 0 mm 4 mps 634 mmHg 21%
    18:00 +30°C° 0 mm 4 mps 634 mmHg 24%
    19:00 +28°C° 0 mm 5 mps 633 mmHg 28%
    20:00 +27°C° 0 mm 5 mps 633 mmHg 31%
    21:00 +26°C° 0.1 mm 4 mps 632 mmHg 35%
    22:00 +25°C° 0.1 mm 4 mps 632 mmHg 38%
    23:00 +25°C° 0.1 mm 4 mps 632 mmHg 42%

    23 August, Thursday

    Time Temperature Precipitation Wind Pressure Humidity
    00:00 +23°C° 0 mm 5 mps 632 mmHg 43%
    01:00 +23°C° 0 mm 5 mps 631 mmHg 43%
    02:00 +23°C° 0 mm 6 mps 631 mmHg 44%
    03:00 +23°C° 0 mm 6 mps 631 mmHg 46%
    04:00 +22°C° 0 mm 6 mps 631 mmHg 49%
    05:00 +22°C° 0 mm 7 mps 631 mmHg 51%
    06:00 +23°C° 0 mm 8 mps 631 mmHg 46%
    07:00 +24°C° 0 mm 9 mps 631 mmHg 41%
    08:00 +26°C° 0 mm 10 mps 632 mmHg 36%
    09:00 +27°C° 0 mm 10 mps 632 mmHg 30%
    10:00 +28°C° 0 mm 11 mps 632 mmHg 25%
    11:00 +29°C° 0 mm 11 mps 633 mmHg 19%
    12:00 +29°C° 0 mm 11 mps 633 mmHg 18%
    13:00 +31°C° 0 mm 11 mps 633 mmHg 17%
    14:00 +31°C° 0 mm 10 mps 633 mmHg 16%
    15:00 +31°C° 0 mm 10 mps 633 mmHg 16%
    16:00 +31°C° 0 mm 9 mps 633 mmHg 16%
    17:00 +31°C° 0 mm 9 mps 633 mmHg 16%
    18:00 +28°C° 0 mm 7 mps 632 mmHg 18%
    19:00 +27°C° 0 mm 5 mps 632 mmHg 20%
    20:00 +25°C° 0 mm 3 mps 632 mmHg 22%
    21:00 +25°C° 0 mm 3 mps 632 mmHg 24%
    22:00 +24°C° 0 mm 3 mps 632 mmHg 26%
    23:00 +22°C° 0 mm 3 mps 631 mmHg 27%

    24 August, Friday

    Time Temperature Precipitation Wind Pressure Humidity
    00:00 +22°C° 0 mm 3 mps 631 mmHg 28%
    01:00 +21°C° 0 mm 3 mps 631 mmHg 30%
    02:00 +21°C° 0 mm 3 mps 631 mmHg 31%
    03:00 +20°C° 0 mm 4 mps 631 mmHg 31%
    04:00 +20°C° 0 mm 4 mps 631 mmHg 32%
    05:00 +20°C° 0 mm 4 mps 631 mmHg 32%
    06:00 +21°C° 0 mm 4 mps 632 mmHg 30%
    07:00 +23°C° 0 mm 5 mps 632 mmHg 28%
    08:00 +26°C° 0 mm 6 mps 633 mmHg 25%
    09:00 +27°C° 0 mm 6 mps 633 mmHg 23%
    10:00 +29°C° 0 mm 6 mps 633 mmHg 20%
    11:00 +30°C° 0 mm 7 mps 634 mmHg 17%
    12:00 +32°C° 0 mm 7 mps 633 mmHg 16%
    13:00 +33°C° 0 mm 7 mps 633 mmHg 15%
    14:00 +34°C° 0 mm 7 mps 633 mmHg 13%
    15:00 +34°C° 0 mm 8 mps 632 mmHg 14%
    16:00 +34°C° 0 mm 8 mps 632 mmHg 14%
    17:00 +34°C° 0 mm 8 mps 632 mmHg 14%
    18:00 +32°C° 0 mm 7 mps 631 mmHg 17%
    19:00 +30°C° 0 mm 6 mps 631 mmHg 19%
    20:00 +28°C° 0 mm 4 mps 631 mmHg 22%
    21:00 +27°C° 0 mm 4 mps 631 mmHg 24%
    22:00 +26°C° 0 mm 4 mps 630 mmHg 26%
    23:00 +26°C° 0 mm 4 mps 630 mmHg 28%
    Show more